Montana Department of Transportation

Main Content

Accidents and Incidents Report

Hourly Weather Roundup

ASUS45 KTFX 231119
RWRMT 
MONTANA HOURLY WEATHER ROUNDUP
NATIONAL WEATHER SERVICE GREAT FALLS MT
419 AM MST SUN NOV 23 2014

NOTE: "FAIR" INDICATES FEW OR NO CLOUDS BELOW 12000 FEET WITH NO
SIGNIFICANT WEATHER AND/OR OBSTRUCTIONS TO VISIBILITY.

* THESE STATIONS ARE NOT UNDER NWS QUALITY CONTROL. THEY DO NOT
   REPORT WEATHER SUCH AS PRECIPITATION OR FOG.

MTZ001.007-043-231200-
WEST OF THE DIVIDE
CITY           SKY/WX    TMP DP  RH WIND       PRES   REMARKS
KALISPELL      PTCLDY    27  23  85 CALM      29.92R 
MISSOULA       CLOUDY    34  27  76 CALM      29.98R 
BUTTE          LGT SNOW  27  19  72 NW8       29.90R WCI  19 
MULLAN PASS    FOG       25  21  85 VRB6      29.94R VSB 1 1/2 WCI  18 
* EUREKA APT   PTCLDY    30  21  69 CALM      29.95R 
* HAMILTON APT MOCLDY    37  21  52 W5        29.98R WCI  33 
* LIBBY APT    PTCLDY    28  23  81 E3        29.99R 
* LINCOLN      N/A       28  26  92 S4G11      N/A   
* LOOKOUT PASS N/A       28  26  92 VRB6G11    N/A   WCI  21 
* POLSON       N/A       34  21  59 W3G8       N/A   
* RONAN APT    MOCLDY    36  25  64 N/A        N/A   
* SEELEY LAKE  N/A       32  23  69 W5G11      N/A   WCI  27 
* THOMP F APT  PTCLDY    24  17  75 N11G23     N/A   WCI  13 
* YAAK HILL    N/A       28  25  89 N/A        N/A   
--------------------------------

MTZ008-052.055-231200-
SOUTHWEST MONTANA
CITY           SKY/WX    TMP DP  RH WIND       PRES   REMARKS
BOZEMAN        MOCLDY    28  25  89 N7        29.89R WCI  21 
DILLON         MOCLDY    28  19  69 W8        29.91R WCI  20 
* W YELLOWSTON PTCLDY    19  16  88 SW3        N/A   
* ENNIS APT    MOCLDY    30  19  64 N/A        N/A   
* THREE FORKS  MOCLDY    32  32 100 N/A        N/A   
* BOULDER HILL N/A       27  18  69 W7G26      N/A   WCI  19 
* MONIDA PASS  N/A       19  18  96 W9         N/A   WCI   8 
* RAYNOLDS PAS N/A       21   4  48 SE3        N/A   
* WHITEHALL    N/A       28  24  85 NW6        N/A   WCI  21 
* WISE RIVER   N/A       26  17  69 W9G17      N/A   WCI  17 
--------------------------------

MTZ009.010-012-014-046-048-049-054-231200-
EAST SLOPES AND CENTRAL MONTANA
CITY           SKY/WX    TMP DP  RH WIND       PRES   REMARKS
CUT BANK       CLOUDY    28  21  75 W12       29.78R WCI  18 
GREAT FALLS    CLOUDY    30  19  64 W10       29.79R WCI  21 
HELENA         MOCLDY    34  25  70 W7        29.85R WCI  28 
MALMSTROM AFB  MOCLDY    32  21  64 W12       29.81R WCI  23 
* CONRAD       MOCLDY    32  21  64 SW13       N/A   WCI  22 
* DEARBORN     N/A       30  20  66 S3         N/A   
* EAST GLACIER N/A       27  20  75 W11        N/A   WCI  17 
* MONARCH      N/A       29  11  47 W17G24     N/A   WCI  17 
* PENDROY      N/A       30  19  64 W9G14      N/A   WCI  22 
* ROGERS PASS  N/A       26  21  81 SE12G20    N/A   WCI  15 
* SAINT MARY   N/A       29  20  69 SE5G17     N/A   WCI  24 
* SWEET GRASS  N/A       27  27 100 NW8        N/A   WCI  19 
* WHITE SULPH  N/A       29  16  58 SW4G14     N/A   
--------------------------------

MTZ011-013-016-021-035-040-045-047-050-051-231200-
NORTH CENTRAL MONTANA
CITY           SKY/WX    TMP DP  RH WIND       PRES   REMARKS
HAVRE          CLOUDY    34  25  70 W20G26    29.76R WCI  23 
LEWISTOWN      CLOUDY    34  19  54 NW15G24   29.76R WCI  24 
* N BAR RANCH  MOCLDY    30  18  61 NW17G26   29.71R WCI  18 
* CHINOOK      PTCLDY    32  23  69 W18G24    29.74R WCI  21 
* FORT BENTON  CLOUDY    34  21  59 SW3       29.82R 
* CHESTER      N/A       31  26  82 NW7        N/A   WCI  24 
* DENTON       N/A       35  18  50 W20G27     N/A   WCI  24 
* GEYSER       N/A       34  14  44 W20G26     N/A   WCI  23 
* JUDITH GAP   N/A       31  15  51 W18G27     N/A   WCI  19 
* LOMA         N/A       34  26  73 W4         N/A   
--------------------------------

MTZ017.020-022.027-061-062-231200-
NORTHEAST MONTANA
CITY           SKY/WX    TMP DP  RH WIND       PRES   REMARKS
GLASGOW        CLOUDY    28  19  69 NW28G43   29.59R WCI  13 
GLENDIVE       CLOUDY    36  27  70 W25G39    29.53R WCI  24 
JORDAN         PTCLDY    34  28  79 W23G30    29.63R WCI  22 
SIDNEY         MOCLDY    30  21  69 W28       29.53R WCI  15 
WOLF POINT     CLOUDY    30  21  69 NW30G36   29.57R WCI  15 
* BEAVER HILL  N/A       36  28  73 W34G44     N/A   WCI  22 
* CIRCLE       N/A       34  28  79 W7G18      N/A   WCI  28 
* LINDSAY DVD  N/A       33  26  75 W32G44     N/A   WCI  19 
* NAVAJO       N/A       20  13  74 NW40G48    N/A   WCI  -1 
* PLENTYWOOD A MOCLDY    19  16  88 W25G33    29.43R VSB 1 1/4 WCI   1 
* POPLAR APT   PTCLDY    28  19  69 N/A       29.54R 
* SACO         N/A       31  22  69 W27G33     N/A   WCI  17 
--------------------------------

MTZ028.042-056.058-231200-
SOUTHCENTRAL AND SOUTHEAST MONTANA
CITY           SKY/WX    TMP DP  RH WIND       PRES   REMARKS
BAKER          CLOUDY    36  27  70 W26G36    29.55R WCI  24 
BILLINGS       PTCLDY    36  16  44 W20G30    29.75R WCI  25 
LIVINGSTON     CLOUDY    34  21  59 W22G29    29.82R WCI  22 
MILES CITY     CLOUDY    37  27  67 W23G36    29.63R WCI  26 
* BIG TIMBER A MOCLDY    32  21  64 SW20      29.81R WCI  20 
* FORSYTH APT  MOCLDY    37  27  67 W17G22    29.69R WCI  27 
* LAUREL APT   PTCLDY    37  16  42 W10G17     N/A   WCI  30 
* ALZADA       N/A       29  22  75 SW9        N/A   WCI  21 
* HYSHAM       N/A       34  14  44 W8         N/A   WCI  27 
* LAME DEER    N/A       33  16  50 W10G19     N/A   WCI  25 
* REED POINT   N/A       37  19  48 W19G29     N/A   WCI  27 
* ROSCOE HILL  N/A       27  20  75 W12G21     N/A   WCI  16 
--------------------------------

REGIONAL REPORTS...DAKOTAS
CITY           SKY/WX    TMP DP  RH WIND       PRES   REMARKS
WILLISTON      MOCLDY    28  18  66 W31G39    29.44R WCI  12 
DICKINSON      CLOUDY    36  28  73 W26G32    29.44R WCI  24 
BEACH          CLOUDY    36  30  79 W29G38    29.49R WCI  23 
CROSBY         LGT SNOW  23  23 100 W26G38    29.36R VSB 1 1/2 WCI   6 
TIOGA          CLOUDY    27  25  92 W22G38    29.40R WCI  13 
BISMARCK       CLOUDY    37  32  82 W12       29.44S WCI  29 
GRAND FORKS    FOG       32  30  92 S7        29.37R WCI  25 
FARGO          FOG       34  30  85 S5        29.39S WCI  29 
BUFFALO SD     PTCLDY    36  27  70 W32G41    29.47F WCI  23 
RAPID CITY     MOCLDY    34  21  59 NW15      29.62R WCI  24 
--------------------------------

REGIONAL REPORTS...WYOMING/IDAHO/WASHINGTON
CITY           SKY/WX    TMP DP  RH WIND       PRES   REMARKS
SHERIDAN       PTCLDY    32  18  56 NW16      29.72R WCI  21 
CODY           PTCLDY    30  16  56 CALM      29.75R 
YELLOWSTONE LA MOCLDY    18  12  77 W10       29.82S WCI   6 
SALMON         CLOUDY    27  25  92 NW3       30.02R 
MULLAN PASS    FOG       25  21  85 VRB6      29.94S VSB 1 1/2 WCI  18 
SAND POINT     CLOUDY    32  32 100 SW5       30.05R WCI  27 
SPOKANE        FAIR      30  28  92 SW18      30.07R WCI  18 
--------------------------------

REGIONAL REPORTS...ALBERTA
CITY           SKY/WX    TMP DP  RH WIND       PRES   REMARKS
CALGARY        MOCLDY    25  21  85 SE3       29.75R 
LETHBRIDGE     CLOUDY    28  27  96 NE3       29.80R 
MEDICINE HAT   CLOUDY    27  21  78 NW6       29.79R WCI  20 
EDMONTON       PTCLDY    16  12  84 N5        29.77R WCI   8 
WATERTON GATE  N/A       32  18  56 SW14G22    N/A   WCI  22 
CARDSTON       N/A       34  19  54 W14G20     N/A   WCI  24 
MILK RIVER     N/A       23  21  92 NW2        N/A   
--------------------------------

REGIONAL REPORTS...SASKATCHEWAN
CITY           SKY/WX    TMP DP  RH WIND       PRES   REMARKS
SWIFT CURRENT  LGT SNOW  19  18  96 NW25G35   29.60R VSB 2 1/4 WCI   1 
REGINA         LGT SNOW  18  14  84 N22G31    29.47R WCI   1 
VAL MARIE      N/A       25  19  78 NW23G31    N/A   WCI  10 
ASSINIBOIA     N/A       16  12  84 NW28G35    N/A   WCI  -4 
CORONACH       N/A       18  14  84 NW31G43    N/A   WCI  -2 

--------------------------------